COSMOS 2516 (753)

Last updated on July 6, 2021, 3:40 p.m. UTC

1 41554U 16032A   21186.66668277  .00000029  00000-0  00000-0 0  9998
2 41554  63.9912 253.5105 0014803 217.6780  18.5510  2.13107124 39709
UTC
Height (km)
Latitude
Longitude
Inclination
Orbital Period
UTC large
Height (km)
Speed (km/s)
/
Latitude / Longitude
Inclination (degrees)
Orbital Period (minutes)
Azimuth
Elevation
Range (km)
Doppler Factor
iOS Compass Heading
iOS Angle